Hourly Data Report for September 29, 2017

All times are specified in Local Standard Time (LST). Add 1 hour to adjust for Daylight Saving Time where and when it is observed.

DOAKTOWN AUTO RCS
NEW BRUNSWICK

46°35'06.090" N
66°00'35.071" W
43.00 m
8101201
71038
ADN

Download Data

Hourly Data (September 2017)
Hourly Data Report for September 29, 2017
Temp Definition
°C
Dew Point Temp Definition
°C
Rel Hum Definition
%
Wind Dir Definition
10's deg

Wind Spd Definition
km/h
Visibility Definition
km
Stn Press Definition
kPa
Hmdx Definition


Wind Chill Definition


Weather Definition


TIME
00:00 5.6 4.0 89 25 6   100.14     LegendNANA
01:00 5.2 3.3 88 26 6   100.17     LegendNANA
02:00 4.7 3.4 91 26 9   100.18     LegendNANA
03:00 5.3 3.6 88 26 11   100.17     LegendNANA
04:00 4.8 3.0 88 28 8   100.23     LegendNANA
05:00 4.9 2.6 85 28 7   100.26     LegendNANA
06:00 5.1 2.2 81 28 7   100.30     LegendNANA
07:00 6.3 1.6 72 29 10   100.40     LegendNANA
08:00 7.5 2.3 70 28 6   100.47     LegendNANA
09:00 9.0 1.9 61 32 10   100.54     LegendNANA
10:00 10.6 1.7 54 31 15   100.56     LegendNANA
11:00 11.9 1.0 47 35 14   100.58     LegendNANA
12:00 11.7 1.2 49 34 8   100.62     LegendNANA
13:00 11.7 1.5 50 31 11   100.65     LegendNANA
14:00 11.7 1.5 50 32 8   100.71     LegendNANA
15:00 11.7 1.4 49 35 9   100.76     LegendNANA
16:00 11.7 1.6 50 32 6   100.80     LegendNANA
17:00 11.2 2.0 53 32 6   100.88     LegendNANA
18:00 9.7 1.7 58 35 5   100.97     LegendNANA
19:00 8.2 3.4 72 27 3   101.05     LegendNANA
20:00 7.3 2.8 73 32 1   101.16     LegendNANA
21:00 7.0 3.1 76   0   101.25     LegendNANA
22:00 7.5 1.8 67 33 2   101.29     LegendNANA
23:00 5.9 1.6 74 32 4   101.34     LegendNANA

Notes on Data Quality.

Legend

  • E = Estimated
  • M = Missing
  • NA = Not Available
  • ‡ = Partner data that is not subject to review by the National Climate Archives
Date modified: